Wind_Speed
12 11 8 5 11 10 10 10 12 7 8 13 9 8 5 5 6 6 8 9 12 15 15 15 11 6 3 1 2 2 2 3 7 9 13 16 16 16 15 14 13 12 11 11
16 13 4 10 10 7 7 10 6 8 10 10 10 9 6 6 3 3 4 7 11 14 13 12 11 9 7 2 2 1 1 3 5 7 9 12 12 13 15 16 13 15 14 13
16 11 4 6 11 8 6 10 10 6 9 11 6 12 13 12 11 12 11 7 9 10 13 17 17 14 10 6 5 4 4 4 3 4 6 6 8 9 11 13 14 14 17 17
14 10 8 8 10 8 8 8 5 4 11 7 14 4 9 16 16 16 16 16 12 13 16 12 8 8 9 6 5 5 5 5 2 2 4 6 7 8 9 12 16 18 19 19
10 8 8 9 6 5 4 7 5 3 5 6 6 7 6 13 20 19 21 18 15 15 14 8 5 1 2 4 3 7 7 7 5 4 5 5 6 7 10 12 14 17 20 21
10 9 7 7 8 8 7 8 8 11 10 4 2 10 4 5 17 22 24 27 22 17 14 6 5 8 10 11 9 8 9 6 4 1 4 4 3 5 7 10 12 14 18 21
10 9 6 5 6 8 8 9 2 2 1 5 3 3 3 8 12 19 20 28 28 19 17 16 17 10 9 10 13 8 10 7 6 7 8 7 6 8 9 10 12 13 14 16
12 7 6 4 2 6 9 14 7 5 4 3 3 3 5 8 3 8 10 16 28 24 19 14 15 13 14 18 18 14 16 12 15 14 17 16 16 15 13 12 15 16 16 18
9 9 13 11 1 3 7 7 8 4 5 3 3 2 3 3 3 5 6 17 23 22 17 21 21 19 16 13 11 12 12 12 15 16 16 17 20 21 22 21 22 23 21 22
8 9 14 7 3 2 6 8 4 5 4 2 3 4 3 5 7 6 11 16 18 24 25 29 28 29 23 14 13 10 8 8 13 17 16 15 15 16 19 28 26 23 26 28
12 10 10 7 3 6 5 3 2 4 4 6 3 2 5 11 13 12 13 14 13 11 9 9 16 27 21 18 17 10 9 12 16 16 16 17 19 22 24 22 24 26 25 26
11 6 8 10 9 6 6 6 4 3 5 5 5 5 9 16 17 16 17 16 15 13 10 11 11 11 12 14 15 13 14 18 20 20 20 21 22 23 24 27 27 31 33 30
10 7 9 7 4 5 5 3 5 6 7 8 7 8 14 19 20 19 18 18 15 12 11 11 12 12 16 16 18 22 24 26 26 25 27 28 30 32 33 32 32 33 33 34
10 13 11 10 7 9 6 5 6 8 8 13 10 24 24 24 25 23 20 18 17 16 17 19 20 21 23 25 27 29 30 32 34 36 38 39 40 42 42 43 43 42 42 43
10 7 8 11 13 11 10 6 4 5 5 8 14 27 29 26 26 25 24 23 22 21 22 22 22 24 27 29 31 33 34 36 39 42 44 46 46 48 51 52 50 52 52 51
6 11 12 9 7 5 7 9 8 7 8 9 9 28 26 25 22 19 18 17 16 16 17 18 22 26 30 33 37 41 43 45 48 49 51 51 52 55 56 57 55 56 57 55
10 11 9 5 7 5 7 9 10 9 8 12 21 26 30 25 21 18 17 16 18 20 23 27 31 34 38 40 43 45 46 48 50 54 55 57 58 59 60 60 58 54 53 53
6 5 5 5 3 2 3 3 1 2 7 17 15 19 23 18 16 14 16 19 24 28 31 35 38 41 44 46 49 51 53 55 57 58 60 59 60 60 60 61 61 60 58 55
5 1 3 3 5 9 8 8 5 3 6 8 8 10 12 13 14 16 21 25 29 32 35 39 42 45 47 51 54 57 59 60 60 60 60 59 60 60 60 59 60 60 61 60
3 1 1 6 4 6 2 11 8 5 6 8 6 6 10 14 18 21 26 28 28 37 39 40 41 42 46 49 51 53 56 58 61 63 63 61 61 60 62 62 59 57 59 60
7 3 3 5 3 3 6 6 6 5 6 7 10 12 13 17 21 23 24 27 33 33 29 29 31 36 37 42 47 49 52 54 55 56 57 57 56 54 55 58 61 57 54 58
8 4 5 6 4 4 7 8 7 6 11 15 13 16 18 21 24 22 24 25 25 24 24 25 25 26 30 38 39 43 47 47 46 44 45 48 50 46 46 49 53 58 55 55
7 8 4 4 3 7 5 5 8 13 17 16 19 21 21 20 21 22 19 21 20 20 23 22 24 28 32 38 43 42 39 34 35 36 38 42 40 38 40 43 43 49 53 54
7 8 8 8 8 7 7 11 14 16 18 21 22 17 16 17 17 20 20 21 18 21 23 24 28 31 32 35 39 41 40 39 35 37 39 44 39 38 34 38 40 40 46 48
7 7 9 10 11 13 12 13 13 17 20 17 17 14 15 13 16 19 22 18 18 19 21 25 27 28 27 33 36 38 39 30 31 30 30 31 38 34 32 31 35 38 39 42
7 8 10 11 9 9 11 13 18 18 17 15 13 14 14 15 19 20 17 16 16 15 18 16 19 27 27 27 32 34 36 33 34 27 27 24 24 27 35 31 27 30 32 34
Wind_Direction
195 199 208 236 253 271 274 261 263 270 233 221 230 224 224 176 167 168 155 177 165 151 146 142 140 143 162 134 220 155 150 223 227 232 240 243 244 243 235 239 235 232 227 221
205 207 202 245 251 207 198 244 223 227 232 214 230 241 247 245 240 173 140 159 164 164 147 135 132 135 119 94 97 141 212 225 239 253 246 232 230 235 233 234 235 234 235 232
210 178 204 169 146 152 197 215 194 175 188 207 221 239 245 242 236 217 203 184 178 153 126 114 110 105 101 85 106 130 178 194 215 243 266 266 265 257 249 246 235 240 237 239
218 210 201 178 168 174 150 149 155 206 199 198 223 268 253 249 241 228 216 205 186 162 141 142 143 122 97 85 114 139 176 160 132 316 317 311 299 282 273 256 237 233 237 243
202 205 201 196 218 219 214 190 215 196 197 217 222 237 278 255 237 230 219 210 196 190 164 157 139 175 205 219 136 143 147 128 96 52 15 341 316 314 296 280 266 253 246 243
187 173 189 211 235 249 258 241 245 251 256 252 287 220 233 203 236 243 226 222 212 202 161 155 224 242 216 219 218 204 181 172 164 233 293 284 272 260 258 263 266 262 258 257
200 193 185 201 226 240 231 229 249 296 223 200 280 177 243 290 242 242 241 221 219 208 178 166 159 166 214 211 232 214 200 202 223 253 261 253 259 268 257 247 253 258 260 262
204 189 200 150 224 252 232 223 216 209 189 179 105 1 309 333 262 219 225 224 223 208 194 186 200 223 257 224 229 246 267 282 269 278 275 275 263 264 265 273 275 276 269 262
185 192 193 188 198 222 197 191 200 168 115 97 68 67 343 298 23 144 189 211 217 210 210 204 214 236 252 247 242 251 256 277 288 298 304 286 272 269 260 267 271 265 270 275
197 175 179 181 183 171 220 201 203 203 131 133 60 63 354 157 172 166 182 198 191 198 209 217 222 241 244 237 234 243 264 301 303 295 288 289 290 295 283 279 279 262 265 271
201 176 164 177 182 179 168 191 193 140 145 145 130 156 176 144 147 153 166 164 167 174 200 210 234 237 225 236 253 253 274 286 297 301 309 312 310 305 300 294 280 274 275 275
179 175 140 125 122 151 192 185 192 212 183 130 144 143 153 162 159 163 155 156 162 173 174 176 183 212 223 216 222 248 259 272 279 280 282 289 293 292 293 295 292 280 274 273
165 163 128 129 149 169 195 175 175 182 156 161 154 157 169 174 167 167 174 173 180 193 224 235 241 248 258 272 274 273 272 275 277 277 278 280 282 284 284 284 285 288 287 281
187 167 194 205 202 201 187 160 170 205 211 184 199 170 179 189 184 185 192 198 204 209 219 228 235 243 251 255 258 264 270 276 280 281 284 286 287 287 285 284 283 280 279 281
192 186 201 199 196 205 211 221 242 257 239 205 217 185 182 188 193 196 204 212 217 223 231 238 246 253 260 264 269 273 276 280 281 282 284 285 283 283 284 282 280 281 282 280
195 170 182 169 181 218 259 259 267 262 246 245 204 181 180 187 194 205 214 224 235 245 258 270 272 276 285 289 290 290 290 289 288 286 285 283 282 282 280 281 280 278 277 275
137 144 167 187 214 237 261 270 263 261 240 230 195 194 186 191 201 211 224 242 258 270 282 287 292 294 292 291 290 289 289 288 288 288 286 284 282 281 281 280 279 276 274 272
158 155 150 157 190 175 252 210 141 301 200 189 206 204 199 205 221 242 262 276 286 292 298 300 299 297 296 296 294 292 290 290 289 288 286 284 280 279 277 275 275 275 273 272
121 208 127 146 99 142 148 151 125 129 165 189 208 213 221 239 261 275 287 294 303 308 305 303 304 306 307 304 302 301 298 295 293 290 287 284 280 277 274 273 272 270 268 268
138 132 199 163 150 190 258 202 214 242 272 286 264 256 269 283 289 298 302 305 307 310 307 304 304 309 310 310 308 306 303 300 296 293 290 287 283 279 276 273 268 267 266 265
192 197 205 184 192 194 211 201 228 262 291 290 289 288 284 294 299 303 308 305 304 303 299 303 307 311 314 314 310 307 304 301 300 296 290 288 284 280 280 278 271 264 259 259
208 224 199 193 188 229 217 221 252 287 295 303 295 301 302 304 304 300 304 305 302 299 300 304 316 320 323 323 321 322 315 306 303 298 295 292 288 286 282 277 273 263 256 255
225 210 207 212 234 256 254 247 278 293 300 298 296 295 296 298 298 300 302 307 300 295 296 303 318 321 327 328 331 322 322 323 320 315 311 307 301 298 287 281 274 266 256 253
211 224 235 250 270 272 280 286 294 295 293 296 298 291 296 300 302 305 305 302 295 295 292 297 308 322 325 341 344 346 341 338 333 331 328 312 321 318 302 282 280 274 263 256
225 248 267 268 274 282 285 295 298 295 301 305 296 287 298 297 313 314 309 298 295 297 297 305 318 321 344 348 354 357 350 351 336 339 355 322 327 319 315 293 280 274 266 252
261 286 290 298 301 297 302 301 313 316 308 298 282 292 292 301 314 317 305 300 300 301 305 323 326 327 346 347 350 360 1 5 8 342 360 353 339 316 324 308 291 271 269 259
Height
3177 3179 3179 3181 3181 3182 3182 3183 3185 3186 3187 3189 3189 3190 3192 3193 3194 3194 3197 3199 3201 3204 3206 3208 3211 3214 3216 3218 3221 3222 3224 3225 3226 3228 3229 3230 3232 3232 3235 3237 3238 3240 3241 3242
3177 3178 3179 3178 3179 3180 3181 3182 3183 3185 3186 3189 3189 3190 3191 3193 3195 3196 3197 3199 3201 3202 3204 3207 3210 3212 3215 3218 3220 3221 3223 3224 3226 3227 3227 3228 3229 3230 3232 3233 3235 3237 3238 3240
3175 3178 3178 3178 3178 3179 3180 3181 3182 3184 3185 3187 3189 3189 3189 3191 3193 3195 3197 3199 3201 3203 3204 3207 3210 3212 3214 3217 3218 3220 3222 3223 3224 3224 3225 3226 3227 3229 3230 3232 3233 3234 3236 3238
3174 3176 3176 3177 3178 3180 3180 3181 3182 3183 3184 3186 3187 3187 3186 3187 3189 3191 3194 3197 3200 3202 3204 3206 3209 3212 3214 3217 3218 3219 3221 3222 3222 3223 3223 3223 3225 3226 3226 3227 3228 3230 3231 3233
3173 3173 3174 3176 3177 3179 3180 3180 3181 3182 3184 3185 3185 3187 3183 3183 3184 3186 3190 3195 3198 3200 3203 3206 3208 3211 3214 3216 3218 3218 3219 3220 3221 3222 3223 3223 3223 3223 3224 3225 3226 3228 3228 3227
3169 3171 3172 3173 3174 3176 3177 3178 3180 3180 3181 3182 3182 3184 3182 3182 3181 3182 3187 3191 3195 3199 3202 3206 3207 3208 3211 3213 3215 3217 3218 3219 3219 3220 3220 3221 3220 3220 3221 3222 3222 3223 3224 3226
3168 3169 3171 3172 3173 3174 3176 3177 3179 3180 3181 3180 3179 3180 3179 3178 3177 3177 3179 3186 3193 3200 3201 3203 3203 3206 3208 3210 3212 3214 3217 3217 3217 3217 3218 3218 3218 3218 3218 3218 3218 3218 3219 3220
3165 3169 3170 3171 3172 3172 3173 3175 3176 3180 3181 3177 3178 3178 3177 3176 3174 3174 3177 3182 3189 3196 3199 3202 3204 3204 3206 3207 3210 3212 3213 3214 3215 3214 3215 3215 3216 3215 3215 3215 3216 3216 3215 3215
3162 3165 3167 3169 3170 3171 3171 3172 3173 3173 3176 3176 3179 3180 3179 3177 3176 3173 3175 3181 3186 3193 3198 3196 3199 3200 3204 3206 3208 3209 3210 3211 3211 3211 3210 3211 3212 3212 3212 3211 3211 3211 3211 3211
3161 3163 3165 3167 3168 3169 3169 3171 3171 3170 3176 3179 3178 3178 3179 3177 3177 3178 3178 3180 3184 3188 3191 3194 3196 3197 3201 3203 3204 3206 3207 3206 3207 3207 3207 3207 3207 3207 3207 3206 3206 3204 3204 3204
3158 3161 3165 3166 3166 3166 3169 3168 3169 3169 3170 3172 3180 3179 3178 3178 3178 3179 3180 3182 3186 3188 3190 3192 3193 3195 3198 3200 3200 3202 3203 3202 3202 3201 3201 3201 3200 3199 3199 3199 3199 3198 3197 3196
3158 3160 3163 3165 3165 3165 3166 3166 3167 3167 3170 3170 3171 3178 3177 3179 3179 3181 3182 3184 3185 3188 3190 3191 3192 3193 3193 3196 3197 3198 3199 3198 3198 3198 3198 3197 3196 3196 3194 3192 3192 3191 3190 3190
3157 3159 3162 3166 3168 3166 3165 3165 3165 3166 3166 3168 3169 3176 3176 3179 3181 3182 3184 3184 3186 3188 3189 3190 3191 3191 3192 3192 3193 3193 3194 3194 3194 3193 3192 3191 3190 3188 3187 3187 3185 3183 3182 3181
3155 3156 3158 3161 3162 3164 3165 3165 3165 3165 3165 3165 3166 3168 3172 3176 3180 3182 3183 3184 3185 3186 3187 3188 3189 3189 3190 3190 3189 3189 3188 3187 3186 3185 3184 3183 3182 3179 3178 3176 3174 3174 3173 3170
3152 3154 3156 3158 3159 3160 3161 3163 3164 3164 3164 3164 3164 3166 3169 3173 3177 3178 3180 3181 3182 3183 3183 3184 3185 3185 3184 3185 3184 3183 3183 3181 3178 3176 3174 3172 3171 3169 3165 3163 3162 3160 3158 3158
3150 3152 3154 3156 3158 3159 3160 3160 3161 3162 3162 3163 3163 3166 3170 3172 3174 3176 3177 3178 3179 3180 3180 3180 3180 3179 3177 3176 3173 3171 3168 3166 3164 3161 3159 3157 3156 3153 3150 3148 3145 3143 3143 3142
3149 3151 3153 3155 3157 3158 3159 3158 3159 3159 3160 3160 3160 3163 3166 3169 3172 3173 3175 3175 3176 3175 3175 3174 3172 3171 3169 3166 3161 3158 3154 3151 3148 3143 3141 3139 3136 3134 3132 3129 3128 3127 3126 3124
3149 3151 3151 3152 3154 3157 3157 3157 3158 3158 3158 3160 3162 3164 3167 3169 3170 3171 3171 3172 3171 3169 3167 3165 3162 3158 3154 3151 3147 3143 3139 3135 3131 3127 3122 3119 3116 3114 3113 3111 3110 3109 3109 3109
3147 3148 3149 3151 3152 3157 3156 3156 3158 3159 3161 3162 3163 3165 3166 3167 3168 3169 3168 3166 3164 3161 3158 3153 3149 3144 3139 3134 3129 3123 3118 3114 3109 3106 3103 3099 3096 3094 3092 3091 3091 3091 3089 3090
3146 3147 3148 3150 3151 3154 3154 3155 3157 3158 3160 3161 3162 3163 3164 3163 3163 3163 3160 3157 3154 3150 3146 3143 3140 3135 3130 3124 3116 3108 3100 3094 3088 3083 3079 3076 3072 3071 3069 3069 3070 3072 3071 3070
3145 3145 3147 3148 3150 3151 3152 3154 3156 3158 3161 3158 3158 3159 3159 3159 3158 3156 3155 3152 3150 3146 3142 3139 3136 3131 3124 3117 3109 3101 3091 3081 3072 3064 3058 3055 3052 3050 3048 3047 3048 3050 3052 3051
3144 3145 3146 3147 3149 3151 3151 3152 3155 3155 3153 3153 3153 3153 3152 3152 3151 3149 3147 3144 3141 3138 3136 3133 3130 3125 3119 3110 3101 3091 3081 3071 3061 3051 3043 3036 3032 3032 3030 3025 3024 3024 3028 3031
3143 3145 3146 3148 3148 3148 3149 3150 3150 3149 3149 3148 3148 3147 3146 3145 3144 3142 3139 3137 3134 3132 3129 3125 3121 3116 3110 3103 3093 3082 3071 3061 3051 3042 3034 3026 3021 3017 3014 3010 3007 3005 3007 3011
3141 3142 3143 3146 3146 3146 3147 3147 3146 3145 3145 3144 3143 3141 3140 3139 3137 3135 3133 3130 3128 3125 3121 3119 3114 3110 3103 3096 3087 3072 3061 3053 3045 3037 3029 3017 3011 3007 3001 2997 2994 2992 2992 2996
3140 3141 3142 3143 3144 3144 3144 3143 3142 3141 3140 3139 3137 3136 3135 3134 3132 3130 3127 3123 3121 3119 3116 3113 3108 3102 3097 3091 3082 3070 3061 3052 3043 3034 3024 3013 3005 2998 2990 2985 2981 2979 2980 2983
3138 3139 3139 3139 3139 3139 3140 3139 3138 3136 3134 3133 3132 3131 3130 3128 3127 3124 3120 3118 3115 3113 3110 3108 3104 3098 3093 3086 3079 3072 3063 3053 3042 3032 3022 3011 3001 2993 2986 2978 2972 2971 2971 2975